Home   Weather   Greven   Past weeks

Flag for Germany Past Weather in Greven, North Rhine-Westphalia, Germany — Yesterday and Last 2 Weeks

45 °F

Passing clouds.

Feels Like: 43 °F
Forecast: 39 / 49 °F
Wind: 3 mph from North

Location: Muenster / Osnabrueck

Current Time: Oct 20, 2016 at 11:33:40 PM

Latest Report: Oct 20, 2016 at 11:20 PM

Visibility: 4 mi

Pressure: 29.95 "Hg

Humidity: 93%

Dew Point: 43 °F

Location of GrevenLocation

Past Weather in Greven — Graph


Greven Temperature Yesterday

Maximum temperature yesterday: 48 °F (at 2:20 AM)
Minimum temperature yesterday: 45 °F (at 4:50 AM)
Average temperature yesterday: 46 °F

High & Low Weather Summary for the Past Weeks

High64 °F (Oct 16, 2:50 PM)100% (Oct 8, 6:50 AM)30.45 "Hg (Oct 8, 6:50 AM)
Low32 °F (Oct 11, 2:50 AM)51% (Oct 8, 4:50 PM)29.68 "Hg (Oct 15, 1:20 AM)
Average48 °F85%30.09 "Hg
* Reported Oct 5 10:20 PM — Oct 20 10:20 PM, Greven, Weather by CustomWeather, © 2016

Note: Actual official high and low records may vary slightly from our data, if they occured in-between our weather recording intervals... More about our weather records


Greven Weather History for the Previous 24 Hours

Scroll right to see more
Time TempWeatherWind HumidityBarometerVisibility
10:20 PM
Thu, Oct 20
46 °FPartly cloudy.5 mph93%29.95 "Hg4 mi
9:50 PM45 °FPassing clouds.3 mph100%29.95 "Hg5 mi
9:20 PM45 °FPassing clouds.5 mph100%29.95 "Hg5 mi
8:50 PM46 °FPassing clouds.3 mph93%29.95 "Hg5 mi
8:20 PM46 °FPassing clouds.3 mph93%29.95 "Hg6 mi
7:50 PM46 °FPartly cloudy.3 mph93%29.92 "Hg6 mi
7:20 PM46 °FSprinkles. Partly cloudy.3 mph93%29.92 "Hg6 mi
6:50 PM46 °FSprinkles. Partly cloudy.6 mph93%29.92 "Hg5 mi
6:20 PM46 °FSprinkles. Partly sunny.2 mph93%29.92 "HgN/A
5:50 PM46 °FPartly sunny.2 mph93%29.92 "HgN/A
5:20 PM46 °FSprinkles. Partly sunny.5 mph87%29.92 "HgN/A
4:50 PM48 °FPartly sunny.5 mph82%29.92 "HgN/A
4:20 PM48 °FPartly sunny.5 mph82%29.92 "HgN/A
3:50 PM48 °FPartly sunny.5 mph82%29.89 "HgN/A
3:20 PM48 °FPartly sunny.6 mph82%29.89 "HgN/A
2:50 PM48 °FPartly sunny.5 mph82%29.92 "HgN/A
2:20 PM48 °FPartly sunny.3 mph82%29.92 "HgN/A
1:50 PM48 °FPartly sunny.3 mph87%29.92 "HgN/A
1:20 PM46 °FBroken clouds.3 mph87%29.92 "HgN/A
12:50 PM48 °FBroken clouds.3 mph82%29.92 "HgN/A
12:20 PM48 °FBroken clouds.1 mph87%29.92 "HgN/A
11:50 AM46 °FPartly sunny.2 mph100%29.92 "HgN/A
11:20 AM46 °FPartly sunny.3 mph93%29.92 "Hg6 mi
10:50 AM45 °FBroken clouds.1 mph100%29.92 "Hg4 mi
10:20 AM45 °FFog.1 mph93%29.92 "Hg2 mi
9:50 AM43 °FQuite cool.No wind93%29.92 "Hg1 mi
9:20 AM41 °FFog.2 mph93%29.92 "Hg0 mi
8:50 AM39 °FFog.3 mph100%29.89 "Hg1 mi
8:20 AM39 °FFog.No wind100%29.89 "Hg1 mi
7:50 AM39 °FChilly.No wind100%29.89 "Hg1 mi
7:20 AM39 °FFog.No wind100%29.89 "Hg1 mi
6:50 AM39 °FFog.2 mph93%29.89 "Hg0 mi
6:20 AM37 °FChilly.No wind100%29.89 "Hg0 mi
5:50 AM37 °FChilly.No wind100%29.89 "Hg1 mi
5:20 AM36 °FChilly.2 mph100%29.89 "Hg1 mi
4:50 AM36 °FChilly.No wind100%29.89 "Hg1 mi
4:20 AM37 °FChilly.1 mph100%29.89 "Hg1 mi
3:50 AM39 °FChilly.1 mph100%29.92 "Hg1 mi
3:20 AM37 °FChilly.No wind100%29.92 "Hg1 mi
2:50 AM41 °FQuite cool.No wind93%29.92 "Hg3 mi
2:20 AM41 °FQuite cool.3 mph100%29.92 "Hg3 mi
1:50 AM41 °FQuite cool.1 mph93%29.92 "Hg3 mi
1:20 AM43 °FFog.No wind93%29.92 "Hg3 mi
12:50 AM43 °FPartly cloudy.2 mph93%29.92 "Hg4 mi
12:20 AM45 °FPartly cloudy.5 mph93%29.92 "Hg4 mi
11:50 PM
Wed, Oct 19
45 °FPartly cloudy.5 mph100%29.92 "Hg4 mi
11:20 PM45 °FLight rain. Partly cloudy.3 mph100%29.92 "Hg5 mi
Weather by CustomWeather, © 2016

See weather overviewHow to use our weather pages